Location: Shannon
(40.5500°S, 175.4167°E)
Time: 10:13:22
(UTC+00:00)

Daily predictions for brighter satellites

Satellite Brightness Start Highest point End
(mag) Time Altitude Azimuth Time Altitude Azimuth Time Altitude Azimuth
ALOS 2 4.3 12:08:04 10° SSE 12:10:34 28° SE 12:10:34 28° SE
ATLAS 3B R/B 4.0 12:17:00 10° SSW 12:22:32 32° SE 12:27:40 12° ENE
NOSS 3-1 (A) 4.2 12:18:30 10° SW 12:22:39 36° WSW 12:22:39 36° WSW
Cosmos 2154 Rocket 4.2 12:27:07 60° E 12:27:11 60° E 12:33:25 10° SSE
IDEFIX/ARIANE 42P 3.3 12:33:56 44° ESE 12:34:00 44° ESE 12:39:00 10° S
Cosmos 2181 Rocket 3.9 12:28:20 10° S 12:34:51 81° W 12:34:53 81° W
Cosmos 2297 Rocket 2.5 12:35:59 59° ESE 12:35:59 59° ESE 12:40:54 10° SSE
Cosmos 2322 3.9 12:30:05 10° SSW 12:35:06 67° SW 12:35:06 67° SW
COSMOS 2428 2.8 12:31:17 10° SSW 12:36:29 73° SSW 12:36:29 73° SSW
Cosmos 1295 Rocket 4.4 12:37:39 89° NW 12:37:41 89° W 12:44:05 10° S
Spot 4 4.4 12:42:57 10° S 12:46:54 56° SSW 12:46:54 56° SSW
Cosmos 2237 Rocket 3.0 12:44:19 10° SSW 12:49:53 47° ESE 12:50:59 42° E
ARIANE 5 R/B 3.8 12:50:45 10° S 12:54:02 38° SSW 12:54:02 38° SSW
Meteor 1-21 4.2 12:51:52 10° S 12:57:35 78° ESE 12:57:35 78° ESE
Cosmos 1538 Rocket 4.3 13:02:27 63° ESE 13:02:27 63° ESE 13:07:22 10° SSE
SeaSat 1 4.3 13:05:03 19° WSW 13:05:03 19° WSW 13:06:56 10° SW
Meteor 2-13 Rocket 4.4 12:57:23 10° SSW 13:03:26 70° W 13:03:26 70° W
Cosmos 1610 Rocket 4.3 13:09:46 81° NNW 13:10:06 89° WSW 13:16:22 10° S
USA 267 4.0 13:14:57 36° W 13:14:57 36° W 13:19:25 10° WSW
Nadezhda 3 Rocket 3.9 13:07:34 10° S 13:13:56 78° W 13:14:19 74° NW
Sich 1 3.9 13:15:28 46° S 13:15:28 46° S 13:18:33 10° S
Cosmos 2074 Rocket 4.4 13:14:02 50° W 13:14:24 50° WSW 13:20:35 10° S
ADEOS II 3.8 13:17:17 17° ENE 13:20:14 28° ESE 13:24:39 10° S
Cosmos 2227 Rocket 2.2 13:23:28 70° ENE 13:23:36 70° ENE 13:29:18 10° SSE
CZ-2C R/B 3.3 13:20:21 10° SSE 13:25:22 42° E 13:25:54 41° ENE
ARGOS Delta rocket 4.0 13:27:21 63° SSE 13:27:21 63° SSE 13:31:17 10° S
MSX 3.9 13:30:13 59° W 13:30:13 59° W 13:35:48 10° SSW
NOSS 0 Rocket 4.3 13:24:23 10° SW 13:29:45 48° W 13:29:45 48° W
Cosmos 1805 Rocket 4.0 13:32:21 61° S 13:32:21 61° S 13:36:07 10° S
FENGYUN 3A 3.5 13:33:28 80° WNW 13:33:35 80° WNW 13:39:06 10° SSW
Cosmos 1339 Rocket 4.3 13:27:30 10° S 13:33:40 73° W 13:34:15 68° NW
ATLAS 2AS CENTAUR R/B 4.2 13:34:58 19° W 13:38:53 31° SW 13:45:15 10° SSE
H-2A R/B 3.5 13:41:11 27° E 13:42:21 32° ESE 13:46:07 10° S
NPP 4.0 13:45:32 50° W 13:45:32 50° W 13:50:27 10° SSW
ARIANE 6 FM1 Upper Stage 4.5 13:46:45 24° ENE 13:46:45 24° ENE 13:50:04 10° ESE
Cosmos 962 Rocket 4.4 13:46:37 61° NW 13:47:34 72° W 13:53:50 10° S
Cosmos 923 Rocket 3.9 13:47:42 70° NE 13:48:05 74° ENE 13:53:20 10° SSE
Cosmos 44 3.5 13:48:08 61° WSW 13:48:19 61° SW 13:53:13 10° SSE
Cosmos 2263 Rocket 2.3 13:51:06 57° NNE 13:52:01 66° ENE 13:57:43 10° SSE
SL-8 Rocket 3.9 13:50:58 58° NNW 13:52:21 85° W 13:58:44 10° S
CZ-2D R/B 2.2 13:52:09 52° NE 13:53:27 76° ESE 13:58:52 10° S
Cosmos 1959 Rocket 4.4 13:52:43 52° N 13:54:20 79° E 14:00:31 10° S
ACS3 Solar Sail 3.5 13:49:15 10° NE 13:54:35 30° ESE 13:59:55 10° S
SL-16 R/B 3.2 13:49:27 10° SSW 13:54:57 45° ESE 14:00:24 10° NE
USA 229 DEB 3.2 13:49:34 10° SW 13:55:52 66° WNW 13:56:34 61° NNW
USA 229 3.2 13:49:50 10° SW 13:56:07 67° WNW 13:56:50 61° NNW
Meteor 2-10 Rocket 3.4 13:57:01 69° WNW 13:57:24 73° W 14:02:47 10° S
Resurs 1-4 Rocket 2.0 13:57:11 60° NNE 13:58:13 89° WNW 14:03:37 10° SSW
Cosmos 1500 Rocket 4.5 13:58:57 38° WSW 13:58:57 38° WSW 14:02:32 10° S
Cosmos 1821 Rocket 4.3 13:56:40 38° NNE 13:59:07 63° E 14:05:25 10° SSE
Cosmos 1633 Rocket 3.8 13:59:04 42° ENE 13:59:39 45° E 14:03:52 10° SSE
Meteor 2-19 Rocket 4.3 13:53:50 10° S 14:00:00 83° W 14:01:35 52° N
Tiangong 0.2 14:03:01 21° E 14:03:01 21° E 14:04:14 10° E
Cosmos 2219 3.6 14:00:53 44° NNE 14:02:20 56° ENE 14:07:58 10° SSE
H-2A R/B 3.4 14:00:51 12° NE 14:05:09 37° ESE 14:09:58 10° S
Cosmos 2366 rocket 3.9 14:04:07 52° NNW 14:05:41 75° W 14:12:04 10° S
Okean 1-7 3.9 14:02:41 10° S 14:06:44 43° ESE 14:07:57 34° ENE
Cosmos 1862 Rocket 3.9 14:03:56 10° S 14:08:20 60° E 14:09:15 48° NE
Cosmos 2228 Rocket 3.8 14:07:12 10° S 14:11:34 50° E 14:13:08 33° NE
Okean 3 4.4 14:09:09 10° SSW 14:12:00 35° SW 14:12:00 35° SW
ATLAS 3B R/B 2.6 14:07:16 10° SW 14:13:23 53° WNW 14:14:47 45° NNW
IDEFIX/ARIANE 42P 4.1 14:14:37 21° WSW 14:14:37 21° WSW 14:17:41 10° SW
GEOS 3 Rocket 3.6 14:10:10 10° SE 14:15:15 68° NE 14:16:21 52° N
Cosmos 724 4.3 14:16:26 47° N 14:18:03 71° ENE 14:23:50 10° SE
Cosmos 2297 Rocket 3.9 14:17:45 17° WSW 14:19:45 20° SW 14:23:56 10° S
H-2A R/B 4.4 14:22:02 10° SE 14:24:50 20° E 14:26:38 15° NE
Cosmos 2218 Rocket 4.3 14:25:57 40° NW 14:27:55 55° W 14:34:15 10° S
Cosmos 494 Rocket 4.0 14:26:53 46° N 14:28:29 82° ENE 14:33:45 10° SSE
NOAA 11 4.4 14:29:04 44° NW 14:29:58 48° W 14:35:17 10° SSW
Cosmos 1680 Rocket 3.6 14:28:41 47° NW 14:30:02 65° WSW 14:35:22 10° SSE
Cosmos 1607 4.0 14:29:01 39° NNW 14:31:37 79° ENE 14:38:04 10° SE
Cosmos 2237 Rocket 3.5 14:29:02 10° SW 14:32:45 24° W 14:32:45 24° W
Cosmos 1707 Rocket 3.4 14:30:20 10° SSW 14:34:42 69° W 14:35:27 56° NNW
ALOS 2.4 14:37:57 48° NW 14:38:35 52° W 14:43:07 10° SSW
Cosmos 1420 Rocket 4.0 14:33:36 10° SSW 14:38:44 57° WNW 14:40:22 40° NNW
Meteor 2-5 Rocket 4.4 14:33:01 10° S 14:38:54 57° ESE 14:44:46 10° NNE
Cosmos 1624 Rocket 4.0 14:35:44 10° SSW 14:41:05 86° ESE 14:45:41 14° NNE
Cosmos 1818 3.7 14:41:15 10° SSW 14:46:41 74° ESE 14:52:04 10° NE
Cosmos 1666 Rocket 4.1 14:46:36 38° WNW 14:47:15 41° WSW 14:51:28 10° S
Cosmos 1048 Rocket 4.4 14:44:32 27° N 14:47:23 64° ENE 14:52:44 10° SSE
Cosmos 1328 4.1 14:44:08 10° S 14:47:46 57° E 14:49:44 24° NNE
Meteor 1-22 Rocket 4.4 14:47:13 31° NNW 14:50:14 73° W 14:56:15 10° S
USA 308 2.4 14:47:45 10° SW 14:50:59 82° SE 14:55:04 10° NE
Meteor 2-14 Rocket 4.4 14:49:00 10° SSW 14:55:13 71° W 14:59:41 19° N
SL-4 R/B 4.2 14:53:18 10° SW 14:56:38 24° SSE 14:59:51 10° ESE
ADEOS II 2.7 14:58:05 31° NW 14:59:35 37° W 15:04:30 10° SSW
Cosmos 1900 4.3 14:58:56 31° NNW 15:01:16 76° ENE 15:06:09 10° SSE
Envisat 3.8 15:00:16 29° WNW 15:01:17 32° W 15:05:52 10° SSW
CZ-2C R/B 3.9 15:01:06 10° SSW 15:05:20 25° WSW 15:07:22 20° W
Cosmos 2227 Rocket 4.0 15:05:15 13° W 15:08:12 19° SW 15:12:13 10° S
METEOR-M 4.3 15:08:12 20° N 15:11:42 51° W 15:16:59 10° SSW
Cosmos 381 Rocket 4.5 15:09:21 21° NNW 15:13:51 85° WSW 15:20:16 10° SSE
ADEOS Rocket 3.6 15:06:18 10° N 15:13:55 59° W 15:21:10 10° SSW
Cosmos 1703 Rocket 3.4 15:09:43 10° S 15:14:07 84° W 15:18:08 12° N
Cosmos 1867 3.6 15:11:53 22° NNW 15:15:23 75° ENE 15:20:48 10° SE
Meteor 1-15 Rocket 4.5 15:12:17 23° NNW 15:15:55 58° WSW 15:21:50 10° S
H-2A R/B 3.4 15:17:36 21° W 15:17:43 21° W 15:20:54 10° SW
MOS 1-B Rocket 4.4 15:10:28 10° NNE 15:17:55 86° ESE 15:24:20 10° SSW
ARGOS 3.3 15:12:37 10° NNE 15:18:01 78° ESE 15:23:28 10° S
CZ-2C R/B 2.9 15:14:19 10° NNE 15:19:17 65° ESE 15:24:11 10° S
Meteor 2-8 Rocket 4.4 15:16:15 14° N 15:21:37 85° W 15:27:49 10° S
Cosmos 2227 4.2 15:17:29 18° NNW 15:21:42 83° ENE 15:27:24 10° SSE
Cosmos 1953 2.7 15:23:09 27° NW 15:24:37 40° W 15:28:11 10° S
ARIANE 6 FM1 Upper Stage 3.7 15:22:48 21° WNW 15:25:19 39° SW 15:29:35 10° SSE
Cosmos 1844 3.9 15:20:58 14° N 15:25:43 68° ENE 15:31:19 10° SSE
Meteor 1-12 Rocket 4.3 15:22:38 13° N 15:27:59 85° W 15:33:49 10° S
Cosmos 2056 Rocket 4.2 15:25:22 10° SW 15:30:05 33° W 15:34:01 14° NNW
Meteor 1-24 Rocket 4.1 15:25:23 10° SSW 15:31:14 49° W 15:36:57 10° NNW
PAYLOAD A 4.1 15:26:38 10° NNE 15:31:26 72° ESE 15:36:11 10° S
Meteor 1-16 Rocket 4.1 15:28:00 14° NNW 15:32:50 74° W 15:38:16 10° S
Delta 2 Rocket 3.5 15:32:14 25° NW 15:32:58 28° N 15:35:40 10° NE
CZ-2D R/B 3.9 15:33:24 13° W 15:34:01 13° W 15:36:23 10° WSW
CZ-4C R/B 3.2 15:28:53 16° NW 15:36:26 82° SW 15:44:02 10° SSE
Cosmos 2263 Rocket 3.9 15:32:45 12° W 15:36:26 20° SW 15:40:37 10° S
ACS3 Solar Sail 2.2 15:31:20 10° NNW 15:37:15 44° W 15:43:13 10° SSW
Tiangong -2.0 15:35:21 15° W 15:37:55 56° NNW 15:41:08 10° ENE
Resurs 1-4 Rocket 4.1 15:38:13 10° W 15:38:40 10° W 15:39:20 10° W
SL-16 R/B 3.2 15:34:08 10° SW 15:38:44 26° WNW 15:42:43 12° NNW
Cosmos 1844 Rocket 2.7 15:34:04 14° NNW 15:38:58 84° WSW 15:44:43 10° SSE
Cosmos 1605 Rocket 4.2 15:34:00 10° N 15:40:19 82° E 15:46:49 10° S
Cosmos 1933 Rocket 4.1 15:40:05 16° NW 15:43:19 43° WSW 15:47:39 10° S
H-2A R/B 3.1 15:41:21 15° NW 15:44:30 26° W 15:48:53 10° SW
H-2A R/B 3.4 15:43:35 10° NNE 15:47:27 81° ESE 15:51:24 10° S
SL-08 RB Rocket 3.6 15:45:27 10° NNE 15:49:53 85° WNW 15:54:23 10° SSW
Cosmos 614 Rocket 3.9 15:44:58 10° NNW 15:49:59 83° WSW 15:55:08 10° SSE
Spot 2 4.3 15:48:11 10° S 15:52:39 57° WSW 15:56:50 10° NNW
ATLAS CENTAUR R/B 0.8 15:51:32 16° NW 15:53:38 50° SW 15:56:33 10° SSE
Cosmos 1939 Rocket 3.1 15:53:22 10° NNE 15:57:03 66° ESE 16:00:45 10° S
H-2A R/B 3.4 15:55:50 10° SSW 15:58:58 26° WSW 16:01:50 11° NW
Cosmos 1110 Rocket 4.3 15:57:49 10° SSW 16:02:48 45° WNW 16:07:47 10° N
BREEZE-M DEB (TANK) 3.4 15:50:23 10° WSW 16:03:16 77° NW 16:06:55 10° NE
MOZ.5/SAFIR/RUBIN 5/SL-8 4.3 16:01:31 10° S 16:05:53 41° WSW 16:10:13 10° NW
Cosmos 1302 Rocket 4.3 16:01:00 10° SSW 16:06:18 75° ESE 16:11:31 10° NNE
Cosmos 1869 Rocket 4.3 16:03:03 10° NW 16:07:10 36° WSW 16:11:21 10° S
USA 308 4.2 16:12:55 10° W 16:15:15 16° NW 16:17:44 10° NNW
Cosmos 2242 Rocket 3.6 16:15:51 10° S 16:20:20 76° W 16:24:44 10° N
